Temp
66 59 56 61 64 63 61 59 58 64 70 66 65 66 71 76 76 75 78 80 81 83 89 92 92 94 95 91 87 85 84 85 86 86 86 86 83 87 88 89 88 88 88 88
58 49 62 63 62 60 59 56 57 63 67 65 63 62 69 72 73 76 77 78 80 83 85 87 89 89 92 89 86 83 84 84 85 87 87 88 87 87 85 87 84 86 86 86
54 58 61 54 52 51 56 55 56 57 63 66 62 59 63 70 74 76 77 79 81 82 84 86 88 88 90 89 86 83 84 84 84 86 87 86 88 89 87 88 88 87 87 87
55 62 57 56 53 57 48 60 58 56 52 47 63 48 62 68 71 74 76 78 80 82 85 86 87 88 87 90 90 87 83 84 84 85 84 81 85 84 88 89 90 88 86 87
51 55 53 51 54 57 49 56 53 51 48 51 54 51 59 67 64 69 74 78 80 83 86 88 90 89 91 91 91 88 85 82 84 83 84 83 83 87 87 90 87 86 84 86
55 62 58 56 58 58 59 55 53 53 47 36 50 52 55 62 66 70 75 78 80 83 85 87 90 93 91 92 93 90 85 82 83 83 82 81 78 83 87 87 87 86 87 85
52 54 58 58 53 58 55 46 33 32 32 37 56 49 56 66 71 73 73 76 80 83 85 86 87 91 90 90 92 86 85 83 82 82 82 81 81 81 81 80 83 83 86 86
40 39 52 58 53 49 51 49 33 28 30 40 56 46 58 70 73 75 76 78 79 81 85 86 87 89 91 90 89 90 86 83 81 79 81 83 83 85 84 80 84 84 86 85
37 40 55 56 57 54 49 45 53 35 43 38 49 58 66 70 70 72 73 75 76 78 81 83 86 87 89 91 88 89 88 85 82 75 80 83 83 84 84 83 83 88 86 79
42 31 50 52 54 56 52 54 40 41 29 31 48 51 55 62 66 69 71 73 75 78 79 81 84 85 86 87 88 88 89 86 86 83 81 85 83 84 85 85 83 80 76 80
45 34 43 49 38 40 44 46 46 44 45 41 43 47 63 61 65 66 69 71 72 74 76 79 82 84 86 87 89 86 88 88 86 85 85 85 85 84 85 84 77 77 79 80
47 36 35 41 51 51 46 35 43 35 40 49 49 51 67 65 67 67 68 69 72 74 76 78 80 81 84 86 87 87 86 89 89 87 86 85 86 85 81 75 76 81 80 81
40 36 31 41 41 48 44 47 45 38 40 39 40 48 66 66 65 67 66 69 71 72 74 76 79 80 82 85 86 87 86 88 91 89 87 85 84 84 76 74 80 81 81 81
43 35 33 33 40 45 42 47 49 45 34 42 47 52 60 64 64 67 67 68 69 70 72 74 76 78 80 82 85 87 87 89 90 89 87 84 82 80 74 76 79 81 82 81
45 34 43 45 45 46 45 46 49 46 49 42 49 48 56 60 62 63 65 65 66 68 70 72 74 76 78 79 81 84 88 89 88 87 87 81 78 77 75 75 78 79 78 78
44 35 39 37 46 46 42 45 47 49 50 50 52 52 62 64 63 60 59 60 59 59 66 71 73 74 74 78 80 82 85 87 87 85 85 72 71 70 69 71 73 75 75 74
35 36 36 35 46 43 36 36 36 37 39 40 35 45 52 48 48 50 52 51 51 52 55 59 68 69 71 76 79 80 83 86 84 76 67 65 67 67 65 68 71 71 69 69
36 35 35 34 39 31 37 42 39 36 37 38 40 42 44 46 49 49 49 49 49 48 51 55 62 65 69 76 79 80 84 81 70 64 63 64 66 64 64 65 68 68 67 67
40 34 33 30 32 38 38 37 35 33 33 40 36 40 43 47 47 44 47 49 48 47 49 49 53 59 63 74 78 74 69 67 64 61 60 62 62 61 62 66 65 66 66 65
47 37 32 32 28 27 36 39 42 39 32 40 42 40 40 41 38 36 45 45 46 47 49 49 52 56 58 60 63 62 59 60 59 59 59 60 60 60 60 62 63 63 65 63
38 36 31 33 32 37 38 40 42 33 34 42 43 40 38 36 38 42 45 45 46 46 47 48 48 50 53 58 58 55 56 55 56 58 58 58 58 57 58 59 62 63 63 63
33 32 33 33 32 29 40 38 32 37 44 44 42 41 38 40 41 42 43 44 45 45 46 46 45 45 49 53 53 51 51 52 54 54 53 53 53 54 55 58 60 60 60 58
34 34 31 33 34 40 41 36 44 45 43 43 43 43 43 42 41 42 42 43 44 44 45 46 45 44 45 48 51 49 50 52 52 50 51 51 52 53 55 56 55 58 58 57
40 41 36 36 40 38 38 42 45 44 43 45 45 44 43 41 42 42 43 43 43 44 44 45 45 44 42 44 47 49 50 51 50 48 49 49 50 50 52 54 59 59 58 59
38 41 37 37 39 39 39 41 43 44 45 44 44 44 43 43 41 42 42 43 43 44 44 45 44 43 42 44 44 47 49 50 48 48 49 48 49 50 51 52 55 56 53 57
42 40 36 34 39 37 37 40 43 42 42 43 43 42 42 43 42 44 45 46 45 44 45 44 44 44 44 44 43 44 45 47 46 45 45 46 49 51 49 46 46 38 40 40
MSLP
1006.66 1006.44 1005.10 1004.62 1004.16 1003.94 1003.37 1002.49 1001.53 1001.02 1000.74 1000.71 1000.18 999.63 999.18 998.94 999.00 999.20 998.96 998.66 998.42 998.32 998.11 998.10 998.46 998.71 998.71 999.88 1001.03 1001.80 1002.72 1003.66 1004.65 1005.29 1005.82 1006.28 1006.75 1007.31 1008.02 1008.57 1009.03 1009.59 1010.18 1010.74
1006.65 1006.16 1005.31 1004.78 1004.70 1004.42 1003.92 1002.92 1001.99 1001.71 1001.51 1001.34 1000.82 999.82 999.62 999.27 998.77 998.74 998.59 998.28 998.10 998.03 998.04 998.08 998.37 998.71 998.27 999.24 1000.33 1001.38 1002.07 1002.87 1003.72 1004.15 1004.75 1005.52 1006.38 1007.05 1007.38 1008.46 1008.64 1009.26 1009.77 1010.37
1006.08 1005.66 1005.74 1006.50 1006.32 1005.33 1004.05 1003.00 1002.24 1001.82 1001.48 1001.07 1000.71 999.33 998.95 998.47 998.14 998.00 997.85 997.84 997.46 997.12 997.05 997.22 997.48 997.97 998.26 998.47 999.66 1000.74 1001.48 1002.05 1002.76 1003.36 1004.38 1005.16 1005.86 1006.29 1006.92 1007.30 1007.98 1008.84 1009.37 1009.92
1006.66 1005.72 1005.72 1005.46 1005.14 1004.80 1003.89 1003.55 1002.81 1002.51 1002.21 1001.08 1000.29 997.86 997.32 996.63 996.03 995.97 996.10 996.44 996.28 996.17 996.24 996.44 996.68 997.14 997.84 997.82 998.89 999.94 1000.88 1001.46 1002.17 1002.92 1003.22 1003.90 1004.18 1004.76 1005.42 1006.12 1007.00 1008.03 1008.88 1009.45
1006.68 1006.26 1006.20 1005.72 1005.00 1004.65 1004.61 1004.46 1004.02 1003.98 1002.89 1001.84 1000.45 998.72 996.67 996.36 995.68 995.32 995.22 995.04 994.99 994.91 995.00 994.88 995.40 996.10 996.84 997.36 997.71 998.99 1000.00 1000.86 1001.34 1002.05 1002.51 1003.04 1003.50 1004.19 1004.87 1005.61 1006.44 1007.60 1008.53 1009.05
1007.09 1006.91 1006.42 1005.81 1005.42 1005.04 1004.78 1004.59 1004.20 1003.71 1003.03 1001.44 999.89 998.22 995.70 995.04 994.48 994.17 994.17 994.04 994.08 994.18 994.20 994.29 994.46 994.78 995.58 996.45 996.74 997.80 999.01 999.96 1000.72 1001.51 1002.32 1002.76 1003.03 1003.43 1003.76 1004.91 1005.98 1007.17 1007.83 1008.67
1007.02 1005.87 1005.85 1006.20 1005.25 1004.56 1004.82 1004.94 1004.30 1003.44 1002.41 999.62 998.18 997.28 995.18 994.40 993.83 993.58 993.58 993.50 993.53 993.56 993.54 993.67 993.80 993.94 994.75 995.33 995.79 996.88 998.17 999.03 1000.09 1000.98 1001.76 1002.47 1002.83 1003.15 1003.60 1004.83 1005.69 1006.08 1006.77 1007.92
1007.57 1006.16 1005.80 1005.60 1005.90 1005.28 1004.14 1004.20 1004.34 1002.70 1001.57 998.97 996.77 995.58 993.56 993.47 993.48 993.50 993.56 993.36 993.38 993.16 992.94 993.16 993.30 993.51 993.86 994.48 995.23 995.64 996.92 998.37 999.25 1000.30 1001.21 1002.04 1002.40 1002.80 1003.70 1004.74 1005.23 1005.77 1006.50 1007.24
1009.48 1007.39 1006.94 1006.34 1005.63 1005.66 1004.50 1003.86 1004.10 1004.33 1002.21 1000.27 996.71 994.73 993.56 993.19 993.17 993.24 993.20 993.16 993.17 993.35 993.35 993.19 993.39 993.52 993.59 993.64 994.67 994.94 995.80 996.87 998.09 999.14 1000.33 1001.99 1001.92 1002.28 1002.84 1003.82 1004.62 1004.91 1005.74 1007.27
1011.14 1009.38 1007.30 1006.46 1006.55 1005.07 1004.56 1004.34 1003.92 1003.90 1001.71 998.99 996.00 994.02 992.64 992.81 992.62 992.61 992.48 992.76 993.17 993.43 993.52 993.51 993.57 993.70 993.99 994.12 994.28 994.79 995.37 996.28 997.10 998.22 999.60 1001.48 1001.00 1001.73 1002.26 1003.10 1003.71 1004.81 1006.54 1007.17
1011.69 1011.33 1008.03 1006.95 1006.93 1005.88 1005.00 1004.31 1004.33 1003.87 1001.46 998.36 995.23 993.77 993.31 993.75 993.72 993.44 993.56 993.91 994.04 994.26 993.98 993.73 993.62 993.66 993.73 993.93 994.05 994.42 994.80 995.65 996.78 998.14 999.50 999.48 1000.01 1001.02 1001.63 1002.52 1004.02 1005.25 1006.08 1006.75
1011.96 1011.52 1009.02 1006.83 1006.01 1005.99 1005.71 1005.74 1004.93 1004.04 1001.63 999.44 996.52 993.88 994.16 994.51 994.62 994.52 994.69 994.89 994.95 994.94 994.66 994.32 993.97 993.76 993.52 993.47 993.68 993.99 994.32 994.53 995.53 996.81 997.66 998.43 999.28 1000.11 1001.15 1002.67 1003.85 1004.73 1005.63 1006.57
1013.23 1011.60 1009.38 1006.08 1006.26 1005.72 1005.41 1005.07 1004.59 1004.36 1003.29 1000.22 997.64 995.22 994.86 995.08 995.20 995.36 995.46 995.54 995.55 995.34 995.02 994.69 994.20 993.74 993.55 993.20 993.29 993.52 993.98 994.18 994.57 995.70 996.74 997.83 998.83 999.62 1001.20 1002.53 1003.36 1004.33 1005.10 1006.00
1013.18 1011.62 1010.42 1008.15 1006.33 1005.69 1004.74 1004.24 1003.92 1003.41 1002.82 1000.33 998.44 996.38 994.72 994.86 995.01 995.35 995.81 996.38 996.27 995.93 995.21 994.92 994.45 994.06 993.69 993.48 992.96 993.15 993.42 993.76 994.20 995.03 996.02 997.14 998.30 999.68 1001.18 1002.21 1003.19 1003.91 1004.80 1005.60
1012.19 1011.02 1009.35 1007.80 1006.54 1005.68 1004.91 1004.33 1003.81 1003.07 1002.24 1001.02 999.31 997.92 996.96 996.38 996.51 996.78 996.98 997.01 996.65 996.14 995.56 994.90 994.45 994.21 993.97 993.66 993.30 993.08 992.95 993.24 993.92 994.67 995.69 997.11 998.69 999.98 1001.08 1002.15 1003.00 1003.88 1004.92 1006.27
1012.26 1010.76 1009.39 1007.29 1005.63 1004.98 1004.52 1004.48 1004.27 1003.75 1002.93 1001.58 1000.34 998.37 998.06 997.58 997.87 998.32 998.28 998.03 997.94 997.75 996.65 995.24 994.76 994.59 994.32 993.72 993.37 993.08 992.97 993.04 993.91 994.72 995.71 998.02 999.42 1000.43 1001.37 1002.48 1003.49 1004.67 1005.90 1006.88
1012.58 1011.31 1009.52 1006.64 1005.19 1004.67 1004.67 1005.64 1005.94 1005.79 1005.30 1004.30 1002.86 1001.10 1000.37 999.86 999.65 999.52 999.72 999.88 999.65 999.16 998.25 997.18 995.73 995.56 994.80 993.86 993.48 993.12 993.00 993.25 994.07 995.63 997.39 998.54 999.83 1000.90 1001.88 1002.94 1003.99 1005.55 1006.81 1007.86
1012.25 1011.48 1010.44 1007.77 1006.09 1004.40 1005.87 1006.54 1006.89 1006.48 1005.16 1004.64 1003.65 1002.60 1001.86 1000.98 1000.65 1000.78 1000.90 1000.77 1000.34 999.90 999.27 998.44 997.22 996.01 995.19 993.90 993.40 993.32 993.07 993.74 995.61 997.06 998.38 999.49 1000.44 1001.54 1002.48 1003.38 1004.54 1006.05 1007.26 1008.35
1011.66 1011.73 1010.53 1008.78 1007.06 1005.98 1006.18 1007.16 1007.17 1006.83 1005.09 1004.99 1004.56 1003.30 1002.46 1001.50 1001.38 1001.58 1001.75 1001.53 1001.04 1000.47 999.83 999.04 997.90 996.63 995.59 993.92 993.52 993.76 994.56 995.67 996.90 997.96 999.20 1000.20 1001.09 1002.02 1003.06 1004.05 1005.53 1006.54 1007.21 1008.58
1010.64 1011.51 1011.40 1009.62 1008.21 1007.00 1007.40 1007.82 1007.24 1006.48 1005.55 1004.94 1004.20 1003.31 1002.88 1002.60 1001.80 1002.67 1002.50 1001.75 1001.61 1000.90 1000.05 998.98 997.98 996.87 996.08 995.35 995.13 995.40 996.32 997.22 998.21 998.94 999.93 1001.02 1002.00 1003.02 1003.93 1004.86 1006.12 1007.22 1007.68 1008.38
1010.54 1010.94 1010.80 1009.85 1008.88 1008.04 1008.55 1008.45 1007.05 1006.50 1006.36 1005.20 1004.90 1004.85 1004.35 1003.84 1003.97 1003.52 1003.16 1002.98 1002.28 1001.42 1000.44 999.69 998.88 997.93 997.19 996.26 996.16 996.98 997.83 998.62 999.93 1000.47 1000.64 1001.81 1002.83 1003.92 1005.14 1006.17 1007.00 1007.44 1008.20 1009.49
1012.06 1011.83 1011.16 1010.62 1009.86 1009.55 1010.07 1009.21 1008.86 1007.53 1005.81 1005.91 1005.92 1005.97 1005.80 1005.48 1005.22 1004.71 1004.15 1003.49 1002.72 1002.06 1001.40 1000.66 999.98 999.26 998.58 998.00 997.33 998.80 999.53 1000.21 1001.16 1001.93 1002.10 1003.20 1004.08 1004.95 1006.05 1006.93 1007.84 1008.52 1009.60 1010.71
1012.96 1013.41 1013.14 1012.67 1012.09 1011.70 1011.64 1011.02 1009.07 1007.79 1007.16 1007.08 1006.91 1006.86 1006.62 1006.22 1005.94 1005.51 1004.98 1004.37 1003.80 1003.04 1002.35 1001.73 1001.14 1000.68 1000.29 999.78 999.60 1000.00 1001.25 1001.42 1002.64 1003.32 1004.08 1004.70 1005.29 1006.22 1007.40 1008.18 1009.12 1009.81 1010.75 1011.49
1013.54 1013.48 1013.09 1012.73 1012.32 1012.40 1012.25 1010.95 1009.74 1008.97 1008.43 1008.15 1007.95 1007.87 1007.63 1007.22 1006.90 1006.40 1005.81 1005.29 1004.95 1004.16 1003.38 1002.81 1002.26 1002.21 1002.16 1002.24 1002.04 1001.94 1002.64 1003.10 1003.83 1004.49 1005.46 1006.33 1006.75 1007.63 1008.70 1009.59 1009.96 1010.55 1011.26 1011.82
1014.20 1013.63 1013.32 1012.91 1012.86 1012.56 1012.57 1011.78 1010.96 1010.15 1009.74 1009.45 1009.22 1009.03 1008.83 1008.45 1008.09 1007.62 1006.93 1006.34 1005.76 1005.16 1004.71 1003.99 1004.07 1004.12 1004.03 1004.23 1004.55 1004.69 1004.53 1004.57 1005.24 1005.96 1006.96 1007.46 1008.01 1008.56 1009.75 1010.81 1011.31 1011.82 1012.72 1012.62
1013.69 1013.27 1013.26 1013.27 1013.68 1013.66 1013.52 1012.88 1012.12 1011.32 1010.94 1010.73 1010.45 1010.24 1010.07 1009.71 1009.41 1008.83 1007.88 1007.52 1007.16 1006.76 1006.43 1005.99 1006.02 1005.58 1005.97 1006.32 1006.56 1006.66 1006.67 1006.65 1006.70 1007.72 1008.50 1008.58 1009.04 1009.91 1011.02 1012.20 1013.32 1013.96 1014.08 1014.11
Wind_Speed
7 12 17 20 19 19 21 23 22 21 12 17 17 20 18 17 15 18 17 15 15 15 14 12 11 15 17 18 21 21 21 20 17 16 16 13 11 13 12 11 14 14 13 14
13 14 20 16 13 18 23 24 24 21 18 18 19 25 23 22 22 22 22 21 19 19 18 16 14 13 16 19 21 19 23 22 19 16 14 13 14 13 11 12 10 13 14 13
14 17 17 14 20 21 23 23 23 23 19 19 19 25 24 24 25 23 24 24 25 23 21 19 16 13 15 19 21 20 22 23 22 19 14 12 12 11 12 13 12 13 15 15
14 13 11 15 21 23 25 23 24 21 19 17 20 19 18 14 18 21 23 24 26 27 25 22 19 15 15 17 19 22 20 22 22 21 17 20 15 14 12 11 10 12 15 14
19 16 14 18 21 20 16 21 15 20 23 20 24 18 15 17 18 20 20 21 22 25 25 26 23 19 16 17 18 20 21 20 21 21 19 16 17 13 11 11 12 11 13 14
18 14 18 18 18 16 17 18 17 19 15 18 25 23 18 16 19 19 18 17 19 21 22 23 22 19 17 17 18 19 22 21 22 22 22 20 18 14 12 13 11 11 11 11
18 14 4 6 12 11 15 11 6 8 12 15 21 20 19 20 22 18 15 15 15 18 18 18 20 19 18 18 20 17 21 22 21 23 23 22 18 15 13 14 11 12 11 11
9 13 3 11 14 18 16 15 9 10 6 14 21 10 17 16 15 20 22 16 14 14 14 16 16 16 20 19 20 22 23 22 20 18 20 20 20 14 12 12 11 11 11 11
12 9 25 20 10 8 9 17 18 11 18 8 7 13 16 14 13 15 13 15 16 12 11 10 11 11 13 15 19 21 21 22 22 19 15 20 18 17 15 14 11 12 10 12
8 14 11 7 16 18 19 8 6 9 6 7 11 16 9 8 6 7 10 13 11 10 10 11 11 13 8 9 12 18 20 22 23 22 23 21 19 18 14 14 14 16 16 18
13 7 12 17 3 15 6 14 9 7 12 11 12 3 12 5 8 5 6 6 4 1 6 7 8 10 11 9 11 14 18 21 21 22 22 19 17 19 17 15 15 18 19 19
10 6 13 22 12 9 6 3 15 7 14 14 16 6 10 4 3 4 4 5 7 8 8 8 8 8 11 12 10 11 15 18 19 19 19 18 19 20 15 16 19 20 20 20
3 5 10 10 3 3 4 9 8 5 10 11 12 13 6 1 3 2 7 12 12 16 14 12 10 8 9 12 11 11 14 16 18 18 19 19 18 19 17 18 20 20 21 20
8 5 10 12 18 17 18 15 14 9 4 10 14 21 20 14 12 17 16 17 17 17 17 14 13 11 8 10 12 11 12 14 17 18 19 20 19 18 18 19 18 20 20 19
4 9 16 17 21 21 21 20 18 17 17 18 19 21 20 18 20 20 19 17 14 15 15 14 13 12 10 10 12 12 12 13 16 18 19 17 17 18 19 17 18 19 18 17
5 7 14 18 13 9 15 16 16 17 18 19 20 26 18 14 14 18 19 13 13 14 17 15 13 12 13 12 12 11 13 13 16 17 18 17 16 18 16 16 17 18 17 18
5 6 8 7 13 18 7 5 2 5 14 16 13 21 20 19 22 9 5 7 10 13 14 15 14 14 14 13 11 12 15 14 16 15 17 17 18 19 18 18 18 19 18 18
6 5 5 10 15 3 5 3 6 12 20 10 15 14 17 18 4 7 7 7 9 10 11 13 15 15 15 16 13 12 16 14 17 16 15 16 19 18 18 18 21 20 18 18
11 2 6 5 9 12 4 4 11 13 13 6 11 18 18 9 7 5 10 9 8 9 9 10 12 14 14 12 11 8 13 16 17 17 16 16 18 18 18 20 21 20 20 19
3 4 3 4 6 5 7 17 25 10 5 9 18 14 9 10 3 4 10 12 10 9 8 8 9 4 4 7 11 15 13 13 15 17 17 16 17 17 17 19 19 18 18 19
8 4 4 8 4 4 14 29 20 5 7 19 11 12 12 9 8 9 10 8 9 10 12 11 11 8 6 9 15 14 13 15 12 16 19 18 17 18 17 16 14 17 18 18
5 7 5 5 5 6 22 16 11 12 14 9 11 11 11 11 12 13 12 13 13 12 12 13 13 14 11 10 18 16 17 15 15 15 19 19 18 14 14 17 15 19 18 18
3 4 4 4 4 9 14 17 15 12 11 12 11 11 11 13 14 14 14 15 16 15 13 13 14 17 16 15 14 19 14 17 17 19 17 18 18 17 15 16 15 15 15 14
2 5 4 6 5 14 11 17 12 12 13 13 13 13 13 13 14 16 15 15 15 14 14 13 16 18 18 17 16 16 15 16 18 19 18 16 17 18 14 10 12 12 12 12
3 8 9 4 5 11 12 16 14 14 13 15 16 15 14 14 15 14 14 15 15 15 16 17 16 17 18 18 17 14 14 16 17 17 16 16 14 15 14 13 9 11 10 7
3 4 6 3 9 5 7 14 15 13 15 14 13 16 15 14 14 14 14 13 14 15 15 16 16 18 18 17 16 15 14 14 16 15 11 11 12 12 11 12 13 23 19 22
Wind_Direction
277 247 237 249 247 257 279 280 276 276 265 271 263 273 267 262 248 256 251 246 243 244 250 236 238 250 210 196 199 195 192 190 183 192 193 193 201 193 202 201 202 200 201 194
273 264 273 285 282 274 262 260 258 261 260 261 265 265 259 253 255 252 255 252 249 249 241 239 228 232 225 198 200 194 195 188 191 193 194 195 190 201 186 208 194 204 196 194
277 267 266 256 279 284 259 253 258 260 259 246 261 266 261 257 257 252 248 249 252 247 244 236 233 217 233 205 200 197 200 191 190 196 185 190 194 205 197 204 195 195 194 197
285 285 317 269 256 240 249 254 264 263 255 259 251 268 263 259 252 236 238 235 238 243 240 239 229 225 218 219 201 203 199 197 192 193 185 191 194 195 200 200 192 186 196 194
271 298 304 293 278 285 266 263 272 258 262 256 251 251 261 253 255 249 245 238 239 238 236 237 228 217 215 216 208 200 200 200 196 192 196 188 196 194 183 196 181 198 181 189
265 271 273 275 294 281 264 270 270 269 261 244 239 250 253 256 250 241 242 246 235 235 235 238 239 225 213 212 206 193 202 199 197 195 198 197 192 191 185 186 177 183 171 179
320 285 282 285 293 248 238 246 250 235 223 236 221 228 245 249 251 253 257 257 245 241 233 232 230 226 215 200 206 182 200 202 193 199 199 203 199 195 174 173 185 172 172 177
331 318 14 338 309 293 279 233 253 252 288 239 226 218 234 240 257 255 253 255 272 254 231 221 230 232 225 200 208 196 190 198 194 192 201 205 199 191 181 175 168 166 175 160
317 294 322 293 273 304 270 230 241 270 277 252 230 232 249 248 245 252 247 235 240 235 250 247 242 229 239 210 204 201 192 198 187 182 191 215 199 199 185 180 176 166 159 140
303 298 297 326 335 292 238 250 234 219 257 220 234 250 253 164 240 334 229 228 238 238 257 256 239 243 220 225 205 209 194 190 190 189 186 209 193 190 178 177 180 136 146 152
302 240 290 303 246 298 254 227 226 284 271 267 242 113 61 40 319 131 65 69 75 320 312 285 248 245 236 217 208 208 204 191 188 188 192 193 183 185 178 172 141 150 158 159
320 282 293 299 306 279 265 260 275 233 237 245 285 270 119 97 24 31 85 27 349 323 312 311 293 268 250 231 213 200 211 205 191 185 186 186 180 177 164 144 151 159 158 157
321 248 303 323 168 60 339 325 297 197 256 252 259 256 95 52 264 250 312 326 321 316 303 301 293 271 253 240 226 205 198 207 196 184 181 179 177 170 146 149 163 164 159 158
272 229 249 280 303 307 296 288 274 270 278 293 269 277 280 280 291 296 308 308 303 299 294 288 282 279 262 255 240 219 203 196 197 182 182 176 171 154 151 153 164 161 159 155
271 268 274 278 286 284 278 279 279 271 267 267 280 285 285 303 304 304 301 302 288 278 284 277 264 274 281 256 244 234 217 190 190 182 181 165 153 153 151 153 157 153 144 148
284 275 301 290 276 261 296 285 280 289 292 283 290 276 273 296 308 295 296 329 329 312 296 287 269 280 282 261 243 225 220 190 185 181 176 138 141 139 137 137 140 141 145 144
271 295 310 286 316 309 268 43 43 284 287 288 278 285 309 303 291 276 324 339 309 300 295 302 294 290 286 275 241 222 211 180 178 135 134 133 140 139 135 136 139 141 142 140
271 285 281 292 305 314 149 111 339 300 288 287 286 284 277 273 126 55 14 329 312 306 297 291 282 282 286 267 226 223 206 152 136 130 130 136 139 136 135 134 137 139 138 134
206 278 286 294 312 287 128 29 339 332 305 358 311 297 295 347 217 50 5 349 328 319 304 288 278 276 272 270 217 145 130 137 135 131 132 135 132 131 135 137 140 141 134 131
333 189 271 307 302 314 32 334 333 321 249 341 331 4 19 349 126 343 350 7 351 344 338 350 336 316 126 110 117 119 110 118 130 130 125 124 126 128 131 132 139 136 126 118
328 329 267 315 288 266 1 340 321 308 333 329 12 35 36 41 36 20 19 8 357 17 14 22 22 38 41 103 104 102 106 104 112 122 118 117 117 116 119 121 128 122 117 114
317 328 341 315 316 352 353 332 348 283 302 45 49 59 57 51 43 37 31 25 19 28 35 40 45 42 40 70 96 97 95 101 105 101 108 108 108 110 114 116 120 114 119 121
356 351 305 315 318 310 343 314 319 3 47 51 59 53 50 48 46 42 42 33 34 31 41 50 57 57 44 51 78 92 102 107 109 106 102 104 108 105 109 115 121 118 124 119
314 324 279 305 4 332 348 333 0 30 45 50 54 52 46 49 41 41 38 35 43 28 35 48 60 61 58 51 58 76 89 103 103 105 106 108 105 104 106 118 119 120 127 130
314 315 322 267 315 316 360 357 19 30 47 55 53 49 46 47 42 37 37 34 37 35 32 39 52 62 62 58 55 63 82 98 101 99 107 109 109 106 98 76 86 93 52 109
284 333 355 329 353 328 347 6 18 33 44 49 59 57 41 39 43 41 43 46 43 39 38 43 44 52 55 57 59 57 60 84 96 97 95 96 98 101 90 92 90 54 59 54